Weather History for KTTF - March, 2013

Change the Weather History Date:

Friday, March 22, 2013

  Actual Average Record
Temperature  
Mean Temperature 35 °F -  
Max Temperature 42 °F 46 °F 83 °F (1938)
Min Temperature 28 °F 28 °F 11 °F (1959)
Degree Days  
Heating Degree Days 30    
Moisture  
Dew Point 22 °F    
Average Humidity 64    
Maximum Humidity 80    
Minimum Humidity 46    
Precipitation  
Precipitation 0.00 in - - ()
Sea Level Pressure  
Sea Level Pressure 29.96 in    
Wind  
Wind Speed 10 mph (WNW)    
Max Wind Speed 14 mph    
Max Gust Speed 21 mph    
Visibility 10 miles    
Events Snow    
Averages and records for this station are not official NWS values.
T = Trace of Precipitation, MM = Missing Value Source: NWS Daily Summary

Daily Weather History Graph

Daily Weather History Graph

Search for Another Location

Airport or City:

Trip Planner

Search our weather history database for the weather conditions in past years. The results will help you decide how hot, cold, wet, or windy it might be!

Date:

Astronomy

Mar. 22, 2013 Rise Set
Actual Time 7:33 AM EDT 7:48 PM EDT
Civil Twilight 7:05 AM EDT 8:16 PM EDT
Nautical Twilight 6:32 AM EDT 8:49 PM EDT
Astronomical Twilight 5:59 AM EDT 9:22 PM EDT
Moon 3:10 PM EDT (3/22) 4:37 AM EDT (3/22)
Length of Visible Light 13h 11m
Length of Day
12h 15m
Waxing Gibbous, 77% of the Moon is Illuminated
Mar 22
Waxing Gibbous
Mar 27
Full
Apr 3
Last Quarter
Apr 10
New
Apr 18
First Quarter

Hourly Weather History & Observations

Time (EDT) Temp. Windchill Dew Point Humidity Pressure Visibility Wind Dir Wind Speed Gust Speed Precip Events Conditions
12:13 AM 30.2 °F 20.2 °F 21.2 °F 69% 29.92 in 3.0 mi West 12.7 mph - N/A   Haze
12:33 AM 28.4 °F 19.1 °F 21.2 °F 74% 29.92 in 10.0 mi WNW 10.4 mph - N/A   Overcast
12:53 AM 28.4 °F 18.0 °F 21.2 °F 74% 29.92 in 10.0 mi West 12.7 mph 18.4 mph N/A   Overcast
1:13 AM 28.4 °F 19.1 °F 21.2 °F 74% 29.92 in 10.0 mi WNW 10.4 mph - N/A   Overcast
1:33 AM 28.4 °F 18.0 °F 21.2 °F 74% 29.93 in 10.0 mi WNW 12.7 mph - N/A   Overcast
1:56 AM 28.4 °F 19.7 °F 21.2 °F 74% 29.93 in 10.0 mi WNW 9.2 mph 20.7 mph N/A   Overcast
2:16 AM 28.4 °F 18.5 °F 21.2 °F 74% 29.93 in 10.0 mi West 11.5 mph 18.4 mph N/A   Overcast
2:36 AM 28.4 °F 18.0 °F 21.2 °F 74% 29.93 in 10.0 mi West 12.7 mph - N/A   Overcast
2:53 AM 28.4 °F 19.1 °F 21.2 °F 74% 29.93 in 10.0 mi WNW 10.4 mph - N/A   Overcast
3:13 AM 28.4 °F 19.1 °F 21.2 °F 74% 29.93 in 10.0 mi West 10.4 mph 16.1 mph N/A Snow Light Snow
3:33 AM 28.4 °F 18.5 °F 21.2 °F 74% 29.93 in 10.0 mi WNW 11.5 mph 16.1 mph N/A Snow Light Snow
3:53 AM 28.4 °F 19.1 °F 21.2 °F 74% 29.93 in 10.0 mi WNW 10.4 mph - N/A Snow Light Snow
4:14 AM 28.4 °F 20.4 °F 21.2 °F 74% 29.94 in 10.0 mi WNW 8.1 mph - N/A Snow Light Snow
4:34 AM 28.4 °F 19.7 °F 19.4 °F 69% 29.94 in 10.0 mi WNW 9.2 mph - N/A Snow Light Snow
4:54 AM 28.4 °F 18.5 °F 19.4 °F 69% 29.94 in 10.0 mi WNW 11.5 mph - N/A   Overcast
5:14 AM 28.4 °F 19.7 °F 19.4 °F 69% 29.94 in 10.0 mi NW 9.2 mph - N/A   Overcast
5:34 AM 28.4 °F 19.7 °F 19.4 °F 69% 29.94 in 10.0 mi WNW 9.2 mph - N/A Snow Light Snow
5:54 AM 28.4 °F 18.5 °F 19.4 °F 69% 29.94 in 10.0 mi WNW 11.5 mph - N/A   Overcast
6:14 AM 28.4 °F 18.5 °F 19.4 °F 69% 29.94 in 10.0 mi WNW 11.5 mph 17.3 mph N/A   Overcast
6:34 AM 28.4 °F 19.1 °F 19.4 °F 69% 29.95 in 10.0 mi WNW 10.4 mph - N/A   Overcast
6:54 AM 28.4 °F 19.7 °F 19.4 °F 69% 29.95 in 10.0 mi WNW 9.2 mph - N/A   Overcast
7:14 AM 28.4 °F 19.1 °F 19.4 °F 69% 29.96 in 10.0 mi WNW 10.4 mph - N/A   Overcast
7:35 AM 28.4 °F 19.1 °F 19.4 °F 69% 29.97 in 10.0 mi WNW 10.4 mph - N/A   Overcast
7:55 AM 28.4 °F 19.7 °F 21.2 °F 74% 29.97 in 10.0 mi WNW 9.2 mph - N/A   Overcast
8:15 AM 28.4 °F 21.2 °F 21.2 °F 74% 29.97 in 10.0 mi WNW 6.9 mph - N/A   Overcast
8:35 AM 28.4 °F 20.4 °F 21.2 °F 74% 29.97 in 10.0 mi WNW 8.1 mph - N/A   Overcast
8:55 AM 28.4 °F 19.7 °F 19.4 °F 69% 29.97 in 10.0 mi NW 9.2 mph - N/A   Overcast
9:15 AM 30.2 °F 20.8 °F 19.4 °F 64% 29.97 in 10.0 mi NW 11.5 mph - N/A   Overcast
9:35 AM 30.2 °F 21.3 °F 19.4 °F 64% 29.97 in 10.0 mi WNW 10.4 mph - N/A   Overcast
9:55 AM 30.2 °F 21.9 °F 19.4 °F 64% 29.97 in 10.0 mi NW 9.2 mph - N/A   Overcast
10:15 AM 30.2 °F 19.8 °F 19.4 °F 64% 29.96 in 10.0 mi WNW 13.8 mph 19.6 mph N/A   Overcast
10:36 AM 32.0 °F 23.0 °F 19.4 °F 60% 29.97 in 10.0 mi WNW 11.5 mph 16.1 mph N/A   Overcast
10:56 AM 30.2 °F 21.3 °F 19.4 °F 64% 29.97 in 10.0 mi WNW 10.4 mph - N/A   Overcast
11:16 AM 33.8 °F 25.3 °F 21.2 °F 60% 29.97 in 10.0 mi WNW 11.5 mph - N/A   Overcast
11:36 AM 33.8 °F 25.8 °F 21.2 °F 60% 29.97 in 10.0 mi WNW 10.4 mph 17.3 mph N/A   Overcast
11:56 AM 33.8 °F 24.8 °F 21.2 °F 60% 29.97 in 10.0 mi WNW 12.7 mph 18.4 mph N/A   Overcast
12:16 PM 33.8 °F 25.8 °F 21.2 °F 60% 29.97 in 10.0 mi West 10.4 mph 17.3 mph N/A   Overcast
12:36 PM 35.6 °F 28.0 °F 21.2 °F 56% 29.97 in 10.0 mi West 10.4 mph 18.4 mph N/A   Overcast
12:56 PM 35.6 °F 27.1 °F 21.2 °F 56% 29.97 in 10.0 mi West 12.7 mph - N/A   Overcast
1:11 PM 35.6 °F 27.5 °F 21.2 °F 56% 29.97 in 10.0 mi WNW 11.5 mph 17.3 mph N/A   Mostly Cloudy
1:31 PM 35.6 °F 26.6 °F 21.2 °F 56% 29.97 in 10.0 mi West 13.8 mph 17.3 mph N/A   Scattered Clouds
1:51 PM 35.6 °F 27.1 °F 21.2 °F 56% 29.97 in 10.0 mi West 12.7 mph 17.3 mph N/A   Scattered Clouds
2:12 PM 37.4 °F 29.8 °F 21.2 °F 52% 29.97 in 10.0 mi West 11.5 mph 17.3 mph N/A   Scattered Clouds
2:32 PM 37.4 °F 28.9 °F 21.2 °F 52% 29.97 in 10.0 mi WNW 13.8 mph 19.6 mph N/A   Scattered Clouds
2:52 PM 37.4 °F 29.8 °F 21.2 °F 52% 29.96 in 10.0 mi West 11.5 mph - N/A   Scattered Clouds
3:12 PM 37.4 °F 30.8 °F 21.2 °F 52% 29.96 in 10.0 mi WNW 9.2 mph - N/A   Scattered Clouds
3:32 PM 39.2 °F 32.5 °F 24.8 °F 56% 29.95 in 10.0 mi West 10.4 mph 17.3 mph N/A   Mostly Cloudy
3:52 PM 39.2 °F 31.6 °F 23.0 °F 52% 29.95 in 10.0 mi WNW 12.7 mph - N/A   Mostly Cloudy
4:12 PM 39.2 °F 33.0 °F 23.0 °F 52% 29.94 in 10.0 mi West 9.2 mph - N/A   Scattered Clouds
4:32 PM 41.0 °F 34.7 °F 23.0 °F 49% 29.94 in 10.0 mi WSW 10.4 mph - N/A   Scattered Clouds
4:52 PM 41.0 °F 36.4 °F 23.0 °F 49% 29.94 in 10.0 mi WNW 6.9 mph 11.5 mph N/A   Clear
5:13 PM 42.8 °F 36.2 °F 23.0 °F 46% 29.93 in 10.0 mi WNW 12.7 mph - N/A   Scattered Clouds
5:33 PM 42.8 °F 37.5 °F 24.8 °F 49% 29.94 in 10.0 mi West 9.2 mph - N/A   Clear
5:53 PM 41.0 °F 36.4 °F 23.0 °F 49% 29.94 in 10.0 mi West 6.9 mph 17.3 mph N/A   Clear
6:13 PM 42.8 °F 38.6 °F 23.0 °F 46% 29.94 in 10.0 mi West 6.9 mph - N/A   Clear
6:33 PM 41.0 °F 34.3 °F 23.0 °F 49% 29.94 in 10.0 mi West 11.5 mph - N/A   Clear
6:53 PM 41.0 °F 35.2 °F 23.0 °F 49% 29.94 in 10.0 mi West 9.2 mph - N/A   Clear
7:13 PM 39.2 °F 33.6 °F 23.0 °F 52% 29.94 in 10.0 mi West 8.1 mph - N/A   Clear
7:33 PM 37.4 °F 32.8 °F 23.0 °F 56% 29.95 in 10.0 mi West 5.8 mph - N/A   Clear
7:53 PM 37.4 °F 33.8 °F 23.0 °F 56% 29.96 in 10.0 mi West 4.6 mph - N/A   Clear
8:13 PM 35.6 °F 31.7 °F 24.8 °F 65% 29.97 in 10.0 mi West 4.6 mph - N/A   Clear
8:34 PM 35.6 °F 31.7 °F 23.0 °F 60% 29.97 in 10.0 mi West 4.6 mph - N/A   Clear
8:54 PM 35.6 °F 31.7 °F 24.8 °F 65% 29.98 in 10.0 mi WNW 4.6 mph - N/A   Mostly Cloudy
9:14 PM 35.6 °F 31.7 °F 24.8 °F 65% 29.99 in 10.0 mi West 4.6 mph - N/A   Overcast
9:34 PM 35.6 °F 31.7 °F 26.6 °F 70% 29.99 in 10.0 mi West 4.6 mph - N/A   Overcast
9:54 PM 35.6 °F 29.9 °F 26.6 °F 70% 30.00 in 10.0 mi WNW 6.9 mph - N/A   Mostly Cloudy
10:14 PM 35.6 °F 30.7 °F 26.6 °F 70% 30.00 in 10.0 mi NW 5.8 mph - N/A   Clear
10:34 PM 33.8 °F 27.7 °F 24.8 °F 70% 30.01 in 10.0 mi NW 6.9 mph - N/A   Clear
10:54 PM 33.8 °F 27.7 °F 24.8 °F 70% 30.01 in 10.0 mi NW 6.9 mph - N/A   Clear
11:14 PM 33.8 °F 29.6 °F 26.6 °F 75% 30.00 in 10.0 mi NW 4.6 mph - N/A   Clear
11:34 PM 32.0 °F 26.4 °F 24.8 °F 75% 30.00 in 10.0 mi WNW 5.8 mph - N/A   Clear
11:55 PM 30.2 °F 25.4 °F 24.8 °F 80% 30.00 in 10.0 mi NW 4.6 mph - N/A   Clear